User: anonymous   Login
Location: Unspecified
(0.0000°N, 0.0000°E)
Time: 17:12:52
(UTC+00:00)
Language:

Syncom 3 - Orbit

View from above orbital plane
View from above orbital plane
View from above satellite
View from above satellite

Ground track
Ground track

The orbit data is extracted from the following two-line orbital elements,

1   858U 64047A   19015.71588750 -.00000188  00000-0  00000+0 0  9996
2   858   0.6912  49.7583 0004461 221.4334 252.3552  1.00246450161577
Epoch (UTC): 15 January 2019 17:10:52
Eccentricity: 0.0004461
inclination: 0.6912°
perigee height: 35774 km
apogee height: 35812 km
right ascension of ascending node: 49.7583°
argument of perigee: 221.4334°
revolutions per day: 1.00246450
mean anomaly at epoch: 252.3552°
orbit number at epoch: 16157

The dashed part of the orbit path shows where the satellite is in the earth's shadow,  

DLR